DW8097 Weather Reports


Display with metric or nautical units.
time (UTC)temp
F
wind
direction
speed
MPH
gust
MPH
rain 1hr
in
rain 24hr
in
rain mn
in
humidity
%
barometer
mb
20260508204550 71 258 7.0 11.0 0.00 0.00 0.00 21 1001.6
20260508203056 70 350 7.0 12.0 0.00 0.00 0.00 20 1001.8
20260508201547 71 302 3.0 12.0 0.00 0.00 0.00 22 1001.8
20260508200043 72 285 5.0 13.0 0.00 0.00 0.00 21 1002.0
20260508194536 70 322 8.0 15.0 0.00 0.00 0.00 21 1002.3
20260508193044 73 257 6.0 12.0 0.00 0.00 0.00 20 1002.4
20260508191536 73 344 6.0 11.0 0.00 0.00 0.00 19 1002.7
20260508190031 71 282 5.0 13.0 0.00 0.00 0.00 22 1003.0
20260508184524 71 315 8.0 17.0 0.00 0.00 0.00 21 1003.4
20260508183017 71 360 5.0 11.0 0.00 0.00 0.00 21 1003.4
20260508181513 71 344 6.0 18.0 0.00 0.00 0.00 22 1003.7
20260508180009 70 265 2.0 14.0 0.00 0.00 0.00 22 1003.9
20260508174615 70 265 6.0 12.0 0.00 0.00 0.00 21 1004.3
20260508173057 68 314 5.0 13.0 0.00 0.00 0.00 22 1004.6
20260508171552 67 289 3.0 11.0 0.00 0.00 0.00 23 1004.9
20260508170046 66 285 3.0 13.0 0.00 0.00 0.00 24 1005.2
20260508164542 66 304 8.0 14.0 0.00 0.00 0.00 22 1005.4
20260508163038 66 271 6.0 12.0 0.00 0.00 0.00 24 1005.4
20260508161533 67 307 7.0 19.0 0.00 0.00 0.00 24 1005.6
20260508160025 66 271 6.0 12.0 0.00 0.00 0.00 25 1005.7
20260508154518 64 215 6.0 15.0 0.00 0.00 0.00 27 1005.9
20260508153018 64 309 4.0 11.0 0.00 0.00 0.00 27 1006.0
20260508151515 62 282 6.0 17.0 0.00 0.00 0.00 28 1006.3
20260508150020 62 265 7.0 16.0 0.00 0.00 0.00 27 1006.3
20260508144512 64 267 5.0 12.0 0.00 0.00 0.00 28 1006.5
20260508143013 61 53 3.0 6.0 0.00 0.00 0.00 29 1006.7
20260508141506 60 242 4.0 8.0 0.00 0.00 0.00 31 1006.9
20260508140005 57 206 3.0 10.0 0.00 0.00 0.00 33 1007.1
20260508134607 55 225 5.0 13.0 0.00 0.00 0.00 34 1007.2
20260508133100 54 219 4.0 10.0 0.00 0.00 0.00 35 1007.4
20260508131600 52 236 6.0 12.0 0.00 0.00 0.00 36 1007.3
20260508130059 51 273 3.0 12.0 0.00 0.00 0.00 39 1007.4
20260508124556 49 259 4.0 10.0 0.00 0.00 0.00 42 1007.5
20260508123056 47 209 3.0 7.0 0.00 0.00 0.00 43 1007.5
20260508121557 46 181 2.0 7.0 0.00 0.00 0.00 45 1007.6
20260508120056 45 229 2.0 7.0 0.00 0.00 0.00 46 1007.5
20260508114606 45 259 1.0 7.0 0.00 0.00 0.00 46 1007.5
20260508113102 43 66 0.0 3.0 0.00 0.00 0.00 47 1007.4
20260508111602 43 132 0.0 3.0 0.00 0.00 0.00 48 1007.4
20260508110051 43 260 1.0 3.0 0.00 0.00 0.00 48 1007.3
20260508104551 44 232 0.0 4.0 0.00 0.00 0.00 48 1007.3
20260508103023 43 263 0.0 4.0 0.00 0.00 0.00 47 1007.5
20260508101518 43 192 1.0 6.0 0.00 0.00 0.00 47 1007.5
20260508100015 43 266 3.0 8.0 0.00 0.00 0.00 46 1007.6
20260508094516 42 146 4.0 9.0 0.00 0.00 0.00 46 1007.7
20260508094514 42 190 4.0 9.0 0.00 0.00 0.00 46 1007.7
20260508093014 43 158 4.0 8.0 0.00 0.00 0.00 46 1007.6
20260508091511 43 214 3.0 7.0 0.00 0.00 0.00 46 1007.6
20260508090006 43 227 3.0 8.0 0.00 0.00 0.00 45 1007.7
20260508084503 43 240 3.0 8.0 0.00 0.00 0.00 45 1007.8
20260508083002 43 221 2.0 5.0 0.00 0.00 0.00 45 1007.9
20260508081606 43 213 2.0 5.0 0.00 0.00 0.00 45 1008.0
20260508074604 43 210 1.0 6.0 0.00 0.00 0.00 45 1008.0
20260508073056 44 225 3.0 7.0 0.00 0.00 0.00 44 1008.2
20260508071553 44 205 3.0 8.0 0.00 0.00 0.00 44 1008.2
20260508070049 44 207 1.0 4.0 0.00 0.00 0.00 44 1008.4
20260508064548 45 229 2.0 6.0 0.00 0.00 0.00 43 1008.4
20260508063047 45 227 4.0 8.0 0.00 0.00 0.00 43 1008.5
20260508061546 44 276 1.0 4.0 0.00 0.00 0.00 44 1008.6
20260508060015 44 196 2.0 6.0 0.00 0.00 0.00 45 1008.6
20260508054514 44 160 1.0 3.0 0.00 0.00 0.00 45 1008.7
20260508053013 45 115 1.0 3.0 0.00 0.00 0.00 44 1008.8
20260508051523 46 177 0.0 2.0 0.00 0.00 0.00 45 1008.9
20260508050010 44 153 0.0 2.0 0.00 0.00 0.00 49 1009.0
20260508044511 43 202 0.0 1.0 0.00 0.00 0.00 51 1009.1
20260508043017 45 202 0.0 1.0 0.00 0.00 0.00 51 1009.2
20260508041509 43 202 0.0 2.0 0.00 0.00 0.00 54 1009.2
20260508040006 42 238 0.0 2.0 0.00 0.00 0.00 56 1009.3
20260508034505 45 225 0.0 1.0 0.00 0.00 0.00 51 1009.3
20260508033002 45 225 0.0 1.0 0.00 0.00 0.00 52 1009.3
20260508031501 45 225 0.0 1.0 0.00 0.00 0.00 54 1009.3
20260508030100 45 225 0.0 1.0 0.00 0.00 0.00 53 1009.3
20260508030001 45 225 0.0 1.0 0.00 0.00 0.00 53 1009.3
20260508024604 46 225 0.0 1.0 0.00 0.00 0.00 49 1009.3
20260508023056 47 225 0.0 1.0 0.00 0.00 0.00 47 1009.2
20260508021552 47 225 0.0 2.0 0.00 0.00 0.00 47 1009.2
20260508020048 48 235 2.0 3.0 0.00 0.00 0.00 45 1009.0
20260508014544 49 219 2.0 3.0 0.00 0.00 0.00 43 1008.9
20260508013036 50 221 1.0 3.0 0.00 0.00 0.00 41 1008.8
20260508011532 53 292 0.0 1.0 0.00 0.00 0.00 39 1008.8
20260508010033 56 292 0.0 2.0 0.00 0.00 0.00 28 1008.7
20260508004529 57 348 0.0 2.0 0.00 0.00 0.00 26 1008.6
20260508003058 56 355 1.0 5.0 0.00 0.00 0.00 26 1008.8
20260508001556 57 308 1.0 7.0 0.00 0.00 0.00 26 1008.7
20260508000024 57 336 2.0 7.0 0.00 0.00 0.00 24 1009.0
20260507234534 57 20 4.0 10.0 0.00 0.00 0.00 24 1009.0
20260507233020 61 355 1.0 6.0 0.00 0.00 0.00 23 1009.0
20260507231519 58 326 3.0 9.0 0.00 0.00 0.00 25 1009.1
20260507230018 58 350 4.0 10.0 0.00 0.00 0.00 23 1009.0
20260507224522 58 313 5.0 12.0 0.00 0.00 0.00 23 1009.1
20260507223013 59 290 3.0 8.0 0.00 0.00 0.00 23 1009.2
20260507221513 58 322 4.0 12.0 0.00 0.00 0.00 23 1009.3
20260507220012 59 355 4.0 10.0 0.00 0.00 0.00 23 1009.3
20260507214521 62 335 2.0 6.0 0.00 0.00 0.00 21 1009.2
20260507213005 59 317 5.0 11.0 0.00 0.00 0.00 23 1009.4
20260507211506 58 351 4.0 12.0 0.00 0.00 0.00 23 1009.3
20260507210002 61 104 2.0 13.0 0.00 0.00 0.00 23 1009.1